Regional Weather Roundup
Issued by NWS State College, PA

Home | Current Version | Previous Version | Graphics & Text | Print | Product List | Glossary Off
Versions: 1 2 3 4 5 6 7 8 9 10 11 12 13 14 15 16 17 18 19 20 21 22 23 24 25 26 27 28 29 30 31 32 33 34 35 36 37 38 39 40 41 42 43 44 45 46 47 48 49 50

000
ASUS41 KCTP 241110
RWRCTP

REGIONAL WEATHER ROUNDUP
NATIONAL WEATHER SERVICE STATE COLLEGE PA
600 AM EST MON NOV 24 2014

Note: "fair" indicates few or no clouds below 12,000 feet with no
significant weather and/or obstructions to visibility.

* = STATION THAT DOES NOT REPORT PRECIPITATION /E.G. RAIN...SNOW...ETC/
    THUNDER OR FOG.

PAZ002>004-007>009-013>016-020>023-029>032-241200-
WESTERN PENNSYLVANIA

CITY           SKY/WX    TMP DP  RH WIND       PRES   REMARKS
ERIE           MOCLDY    60  52  74 S24G39    29.28R
MEADVILLE      LGT RAIN  57  52  83 S14G29    29.34R
FRANKLIN*      CLOUDY    54  52  94 SW14G24   29.41R
NEW CASTLE       N/A     60  52  75 SW13G21   29.39R
BEAVER COUNTY  NOT AVBL
BUTLER*          N/A    N/A N/A N/A MISG        N/A
PITTSBURGH INT CLOUDY    61  52  72 SW13G22   29.43R
PITTSBURGH     CLOUDY    61  49  64 S14G25    29.45R
INDIANA*       CLOUDY    61  52  72 W14G21    29.51R
LATROBE        CLOUDY    63  52  67 S20G26    29.50R
WASHINGTON CO* CLOUDY    61  52  72 S9G17     29.47R
$$

PAZ004>006-010>012-017>019-024>028-033>037-041-042-045-046-049>053-241200-
CENTRAL PENNSYLVANIA

CITY           SKY/WX    TMP DP  RH WIND       PRES   REMARKS
BRADFORD       LGT RAIN  53  49  86 S14G29    29.41F
DUBOIS         CLOUDY    54  50  86 S13G20    29.45R FOG
CLEARFIELD     CLOUDY    55  51  86 S10G22    29.49S
JOHNSTOWN      CLOUDY    54  49  83 S10G21    29.52R
ALTOONA        CLOUDY    55  52  89 S13       29.55R
STATE COLLEGE  CLOUDY    55  54  94 SW12G21   29.53S
WILLIAMSPORT   CLOUDY    58  54  86 S9G20     29.54F
SELINSGROVE    CLOUDY    62  57  83 SW10G18   29.56F
FT INDIANTOWN  CLOUDY    60  58  94 SW5       29.61S
CAPITAL CITY   CLOUDY    64  59  83 S13G22    29.59F
HARRISBURG     MOCLDY    59  57  93 S13       29.59F
YORK           PTCLDY    64  59  83 S10G22    29.59F
$$

PAZ038>040-043-044-047-048-054-055-060>062-067>071-241200-
EASTERN PENNSYLVANIA

CITY           SKY/WX    TMP DP  RH WIND       PRES   REMARKS
SCRANTON       LGT RAIN  62  56  80 S23G40    29.55F
MOUNT POCONO   LGT RAIN  57  55  93 S18G31    29.64S FOG
ALLENTOWN      CLOUDY    63  59  87 S10       29.64R
QUAKERTOWN*    CLOUDY    63  61  94 S12G23    29.66R
READING        CLOUDY    65  60  84 S16G24    29.62F
LANCASTER      LGT RAIN  62  59  90 S14G23    29.62S
COATESVILLE    CLOUDY    63  61  94 S12G29    29.67R
POTTSTOWN      CLOUDY    62  59  90 S9        29.68R
BLUE BELL      CLOUDY    63  61  94 S10G17    29.68R
DOYLESTOWN     LGT RAIN  62  61  96 S15G32    29.67S
WILLOW GROVE   NOT AVBL
NORTH PHILA    CLOUDY    66  60  81 SW15G26   29.71R
PHILADELPHIA   CLOUDY    63  60  90 S20G30    29.70R
$$


USA.gov is the U.S. government's official web portal to all federal, state and local government web resources and services.